Lapse_Rate
3.3 3.5 3.7 3.4 2.8 2.7 2.7 2.2 1.6 1.0 0.8 0.7 1.1 0.5 -0.1 -0.3 -0.1 -0.4 -0.8 -1.0 -1.1 -1.7 -2.1 -2.3 -2.3 -2.4 -0.9 3.8 2.7 2.5 0.9 0.9 2.6 4.4 5.4 5.6 5.6 5.5 6.5 6.2 5.8 6.5 6.5 5.1 4.4 3.5 4.5
3.6 3.6 3.6 3.4 2.7 2.1 2.3 1.7 1.4 1.1 0.9 0.8 0.6 0.5 0.0 -0.4 -0.6 -0.5 -1.2 -1.3 -1.3 -2.0 -2.3 -2.5 -2.5 -2.5 1.3 6.0 4.6 3.2 1.8 2.7 3.9 4.6 5.1 5.1 6.0 5.8 5.9 6.2 6.4 5.9 5.5 6.0 4.9 5.4 5.3
3.6 3.6 3.6 3.3 3.2 3.1 2.6 2.0 1.5 1.6 1.5 1.1 1.0 0.5 0.4 -0.0 -0.5 -0.9 -1.2 -1.3 -1.1 -1.7 -2.6 -2.9 -2.6 -0.9 2.7 2.3 3.1 2.1 2.2 4.1 4.4 4.9 6.0 5.7 5.9 6.1 5.6 6.5 5.9 5.0 6.5 6.5 6.3 6.0 6.3
3.8 3.6 3.2 3.1 2.9 2.9 2.9 2.8 2.4 1.8 1.5 1.4 1.1 0.7 0.5 0.4 -0.4 -0.9 -1.3 -1.5 -1.6 -1.6 -2.0 -2.4 -1.9 0.4 2.6 3.5 2.8 3.1 2.6 4.7 4.6 4.7 5.4 5.6 5.4 6.1 5.9 6.0 5.8 6.5 6.5 6.5 6.5 6.1 6.0
4.4 4.0 3.9 3.6 3.5 3.3 3.3 3.4 2.9 2.3 2.0 1.9 1.4 0.9 0.7 0.8 0.1 -1.1 -1.8 -1.5 -1.9 -0.7 -0.5 -1.0 1.6 2.8 3.2 4.2 4.7 4.5 3.9 5.7 6.1 5.8 5.4 6.0 5.7 4.7 5.2 6.5 6.5 6.5 6.5 6.5 6.5 6.1 6.5
4.8 4.6 4.5 4.2 3.9 4.0 3.8 3.6 3.2 2.7 2.4 2.1 1.8 1.8 1.4 1.1 0.5 -0.8 -1.2 -1.4 -1.5 -0.4 0.5 1.2 3.2 4.8 4.1 5.7 5.2 5.7 2.9 4.9 6.1 5.7 4.7 5.1 2.4 6.5 6.5 6.5 6.5 6.5 6.5 6.5 6.5 6.5 6.5
5.3 5.1 4.9 4.8 4.6 4.4 4.2 4.0 3.7 3.4 2.9 2.6 2.5 2.2 2.1 1.1 0.5 -0.0 -1.5 -0.5 1.6 3.8 2.3 4.6 5.0 5.6 3.5 4.0 4.1 6.0 4.1 4.8 6.0 5.1 6.5 5.5 6.5 6.5 6.5 6.5 6.5 6.5 6.5 6.5 6.5 6.5 6.5
5.2 5.2 5.1 5.0 4.9 4.8 4.7 4.3 4.0 3.5 3.4 3.0 2.5 2.3 2.1 1.4 0.6 0.4 0.0 3.9 5.7 5.5 5.5 3.3 2.6 4.0 3.6 5.5 6.1 5.4 5.5 6.0 6.0 6.5 6.5 6.5 6.5 6.5 6.5 6.5 6.5 6.5 6.5 6.5 6.5 6.5 6.5
5.2 5.1 5.1 5.0 4.8 4.6 4.5 4.4 4.0 3.7 3.4 3.0 2.5 2.3 1.9 1.0 0.9 0.7 0.5 4.6 3.9 3.2 5.5 4.8 4.2 4.3 3.8 4.3 4.9 4.1 5.5 5.2 6.4 6.5 6.5 6.5 6.5 6.5 6.5 6.5 6.5 6.5 6.5 6.5 6.5 6.5 6.5
5.5 5.3 5.0 4.9 4.8 4.6 4.4 4.2 4.1 3.9 3.5 3.3 2.7 2.5 2.2 1.2 2.4 -0.4 2.5 3.0 1.9 1.4 6.5 6.5 6.0 4.9 4.9 4.5 6.0 3.7 4.5 5.4 6.4 6.5 6.5 6.5 6.4 6.5 6.5 6.5 6.5 6.5 6.5 6.5 6.5 6.5 6.5
5.8 5.5 5.2 5.0 4.8 4.6 4.6 4.5 4.1 3.9 3.5 3.3 2.8 2.7 2.4 2.1 1.4 1.0 4.0 1.6 1.0 3.9 6.5 6.5 6.2 6.0 4.7 5.3 6.1 6.5 5.2 5.8 6.5 6.5 6.5 6.5 6.5 6.5 6.5 6.5 6.5 6.5 6.5 6.5 6.5 6.5 6.5
6.3 5.9 5.5 5.2 5.0 4.8 4.7 4.6 4.4 4.0 3.7 3.4 3.1 2.7 2.4 2.4 -0.2 0.8 1.9 0.1 2.9 6.5 6.5 6.5 6.2 6.4 6.4 6.2 6.2 6.0 6.0 4.5 5.8 6.5 6.5 6.5 5.8 6.5 6.5 6.5 6.5 6.5 6.5 6.5 6.5 6.5 6.5
6.4 6.1 5.8 5.5 5.3 5.2 4.9 4.7 4.5 4.2 3.9 3.5 3.0 2.8 2.5 2.0 1.8 1.8 1.6 2.8 6.5 6.5 6.5 6.5 6.5 6.5 6.5 6.5 6.5 6.5 6.5 6.5 6.5 6.5 6.5 6.5 6.5 6.4 6.4 6.5 6.5 6.5 6.5 6.5 6.5 6.5 6.5
6.7 6.4 5.9 5.5 5.4 5.3 5.1 4.9 4.7 4.3 3.9 3.6 3.0 2.8 1.6 1.2 1.4 1.2 2.0 6.2 6.5 6.5 6.5 6.5 6.5 6.5 6.5 6.5 6.5 6.5 6.5 6.5 6.5 6.5 6.5 6.5 6.5 6.5 6.5 6.5 6.5 6.5 6.5 6.5 6.5 6.5 6.5
6.9 6.6 6.3 5.7 5.6 5.4 5.2 4.9 4.8 4.5 4.1 4.2 3.7 1.2 -0.3 -0.1 0.7 1.8 4.1 6.5 6.5 6.5 6.5 6.5 6.5 6.5 6.5 6.5 6.5 6.5 6.5 6.5 6.5 6.5 6.5 6.5 6.5 6.5 6.5 6.5 6.5 6.5 6.5 6.5 6.5 6.5 6.5
7.0 6.9 6.6 5.9 5.8 5.6 5.3 5.1 4.9 4.6 4.2 4.7 3.9 2.7 0.3 2.0 1.0 2.8 6.0 6.5 6.5 6.4 6.5 6.5 6.5 6.5 6.5 6.5 6.5 6.5 6.5 6.5 6.5 6.5 6.3 6.5 6.5 6.5 6.5 6.3 6.2 6.5 6.5 6.5 6.5 6.5 6.5
6.9 7.1 6.8 6.2 6.0 5.7 5.4 5.2 5.1 4.8 4.2 5.0 2.4 4.4 3.3 1.5 2.5 5.0 6.5 6.5 6.5 5.3 5.8 6.5 6.5 6.5 6.5 6.5 6.5 6.5 6.5 6.5 6.5 6.5 6.2 6.5 6.5 6.5 6.5 6.5 6.5 6.5 6.5 6.5 6.5 6.5 6.5
6.8 6.9 6.9 6.5 6.2 5.9 5.5 5.3 5.2 5.0 4.4 4.7 5.3 6.4 3.8 3.5 5.5 5.4 6.5 6.5 5.5 6.3 5.8 6.4 6.5 6.5 6.5 6.5 6.5 6.5 6.5 6.5 5.8 6.4 6.5 6.5 6.5 6.5 6.5 6.5 6.5 6.5 6.5 6.5 6.5 6.5 6.5
6.8 6.8 7.0 6.8 6.4 6.0 5.6 5.4 5.1 4.9 5.2 4.6 6.4 6.3 4.4 5.4 6.5 6.5 6.3 6.5 6.1 6.5 6.5 6.5 6.5 6.5 6.5 6.5 6.5 6.5 6.5 6.3 5.7 6.4 6.5 6.5 6.5 6.5 6.5 6.5 6.5 6.5 6.5 6.5 6.5 6.5 6.5
6.8 6.8 6.9 6.9 6.7 6.2 5.7 5.5 5.1 4.7 4.7 4.4 6.6 6.5 5.2 6.4 4.5 6.4 6.5 6.5 6.5 5.5 6.1 5.9 6.5 6.4 6.5 6.5 6.5 6.5 6.5 6.5 6.1 6.3 5.6 5.4 6.5 6.5 6.5 6.5 6.5 6.5 6.5 6.5 6.5 6.5 6.5
7.0 6.8 6.7 6.9 6.7 6.3 5.8 5.6 5.0 4.5 4.4 4.5 6.1 6.3 7.0 6.5 6.5 6.4 6.5 6.5 6.5 6.5 6.0 6.2 6.5 6.5 6.5 6.5 6.5 6.5 6.5 6.5 6.4 6.0 5.9 6.5 6.5 6.5 6.5 6.5 6.5 6.5 6.5 6.5 6.5 6.5 6.5
7.1 6.9 6.7 6.8 6.7 6.4 6.0 5.7 5.1 4.5 4.4 5.7 6.7 6.7 6.8 6.8 6.8 6.5 6.5 6.5 6.5 6.5 6.5 6.5 6.5 6.5 6.5 6.5 6.5 6.5 6.5 6.5 6.5 6.4 6.5 6.4 6.5 6.5 6.5 6.5 6.5 6.5 6.5 6.5 6.5 6.5 6.5
7.3 7.0 6.9 6.8 6.8 6.6 6.3 5.7 5.3 5.0 5.1 5.3 6.4 7.1 6.6 6.9 6.5 6.5 6.5 6.5 6.5 6.4 6.3 5.7 6.1 6.5 6.5 6.5 5.3 3.9 4.3 3.9 5.5 6.5 6.5 6.5 6.5 6.5 6.5 6.5 6.5 6.5 6.5 6.5 6.5 6.5 6.5
7.3 7.0 7.0 6.8 6.9 6.8 6.4 5.7 5.4 5.3 5.5 5.1 6.9 6.7 6.8 6.5 6.5 6.5 6.5 6.5 6.5 6.5 6.5 6.3 5.7 6.4 6.4 2.9 3.5 3.9 3.6 4.4 4.6 5.9 5.4 6.5 6.5 6.5 6.5 6.5 6.5 6.5 6.5 6.5 6.5 6.5 6.5
7.4 7.1 6.9 6.8 6.8 6.9 6.5 5.8 5.5 5.3 5.5 3.6 5.5 6.4 6.9 6.5 6.7 6.5 6.4 6.5 5.9 5.8 6.4 6.2 5.3 3.5 2.7 3.2 6.5 6.5 6.5 6.5 6.5 6.5 6.5 6.2 6.5 6.5 6.5 6.5 6.5 6.5 6.5 6.5 6.5 6.5 6.5
7.3 7.2 6.9 6.8 6.6 6.9 6.7 5.9 5.6 5.2 5.3 3.3 4.2 6.3 6.5 6.8 6.6 7.1 6.5 6.6 6.5 6.5 6.5 6.1 5.2 4.0 2.9 6.0 6.5 6.5 6.5 6.5 6.5 6.5 6.4 6.5 6.5 6.5 6.5 6.5 6.5 6.5 6.5 6.3 6.3 6.5 6.5
7.2 7.1 6.9 6.7 6.6 6.9 6.8 6.2 5.7 5.3 5.1 4.5 4.1 5.6 6.0 6.7 7.0 6.9 6.2 6.5 5.7 5.9 6.5 5.3 5.7 5.7 3.4 6.5 6.5 6.5 6.5 6.5 6.5 6.5 6.5 6.5 6.5 6.5 6.5 6.5 6.5 6.5 6.5 6.3 6.5 6.5 5.9
7.1 7.0 6.8 6.6 6.5 6.7 6.8 6.4 5.9 5.5 5.2 4.7 4.1 5.6 6.9 6.6 6.5 6.9 6.8 7.0 5.8 5.2 6.5 4.9 5.5 4.8 5.8 6.5 6.5 6.5 6.5 6.5 6.5 6.5 6.5 6.5 6.5 6.5 6.5 6.5 6.5 6.2 6.4 6.5 6.3 4.5 4.7
7.1 6.9 6.7 6.5 6.3 6.5 6.8 6.6 6.0 5.5 5.3 4.9 2.8 4.4 5.5 5.5 6.1 6.0 4.6 4.6 5.2 4.4 5.5 3.8 5.4 4.8 3.7 6.5 6.5 6.5 6.5 6.5 6.5 6.5 6.5 6.5 6.5 6.5 6.5 6.5 5.8 5.7 5.7 4.0 3.9 3.9 4.9
Wind_Speed
18 18 17 16 17 17 17 19 20 21 21 22 23 25 26 26 28 28 28 29 29 29 26 23 17 13 5 3 8 2 8 9 5 3 2 2 2 1 2 4 4 3 1 4 6 9 7
17 17 17 18 18 18 18 19 20 21 22 22 23 25 26 27 29 31 31 32 31 30 27 20 11 6 2 4 2 3 6 4 2 2 1 2 2 1 1 3 2 3 5 3 6 4 5
17 17 17 17 17 17 18 19 20 21 22 23 23 25 27 29 29 31 34 35 33 33 23 9 2 1 0 12 3 2 6 3 3 3 1 2 1 2 0 4 2 7 5 4 1 3 2
17 18 18 18 18 19 20 20 21 20 22 23 24 25 26 29 30 32 34 36 32 23 9 3 5 2 6 4 3 3 3 2 3 3 2 5 3 1 2 1 4 3 4 3 4 7 2
17 18 17 18 19 19 20 20 20 22 23 23 25 25 26 29 32 34 36 40 30 6 2 10 3 3 9 6 4 3 4 2 1 2 3 1 4 2 5 4 3 4 3 4 5 8 5
16 16 17 18 19 19 20 22 23 23 23 25 26 26 25 28 32 33 39 36 14 2 4 2 0 2 4 4 5 2 1 3 1 4 6 5 5 3 3 3 5 3 3 3 5 3 4
14 15 16 17 18 19 20 21 22 22 24 25 26 26 28 31 32 35 19 5 6 4 6 4 4 5 5 8 4 2 3 4 2 5 1 4 4 4 8 6 4 1 3 5 4 6 6
12 14 15 16 17 18 20 21 22 24 24 25 26 26 28 32 31 33 3 5 4 4 9 7 14 10 8 2 5 3 4 4 3 4 1 5 5 8 5 4 4 4 4 7 7 3 8
10 13 14 16 18 19 21 22 24 25 25 26 26 27 27 30 35 4 3 3 5 1 4 7 5 4 5 8 6 6 6 3 3 3 4 5 7 4 3 5 3 4 5 5 8 2 2
9 11 14 16 18 20 22 23 24 25 27 25 26 26 26 31 3 5 3 7 11 4 4 7 4 5 5 4 3 5 5 5 1 3 3 4 4 4 4 4 7 3 5 4 5 4 3
7 10 13 15 18 20 21 23 25 26 28 27 26 25 23 17 6 3 5 16 13 2 4 3 3 2 4 6 2 1 2 3 6 4 3 6 5 4 3 3 2 6 3 1 2 3 3
3 7 11 14 17 19 21 23 25 26 28 27 26 25 22 3 2 6 16 13 1 6 5 3 5 5 5 1 0 2 2 6 1 2 0 6 3 1 3 3 3 3 4 6 4 3 1
4 5 9 12 15 18 21 23 25 27 29 29 28 26 18 7 4 1 13 3 5 4 3 3 5 4 3 4 2 2 4 5 1 2 3 5 2 5 2 4 5 6 5 3 3 3 5
4 5 8 12 15 18 21 23 25 28 30 31 32 27 9 8 10 7 3 3 3 5 6 4 3 3 6 6 2 3 3 2 5 3 2 1 5 5 7 3 2 1 5 4 5 3 5
6 6 8 10 14 18 21 23 26 28 31 34 26 3 4 4 16 3 4 1 8 6 3 4 2 3 3 3 5 5 3 2 2 4 3 1 3 4 6 4 3 2 2 2 1 3 2
8 7 8 10 13 16 20 23 26 29 32 30 6 4 4 2 19 3 3 5 5 5 4 3 6 4 7 3 4 4 1 2 3 3 0 1 2 4 5 4 7 6 2 3 4 2 3
8 7 7 8 12 15 19 22 25 28 32 24 3 4 3 5 3 3 4 7 6 7 5 6 3 3 3 4 4 3 2 2 2 4 4 1 3 4 4 6 3 5 4 5 5 4 3
9 8 7 8 11 14 18 21 24 26 30 8 3 4 3 2 3 1 3 5 6 6 3 5 2 2 3 3 4 3 3 1 2 0 2 2 4 4 2 1 3 3 3 3 4 4 0
11 9 8 7 10 13 17 20 23 24 23 5 4 3 3 1 3 2 4 4 4 4 4 4 1 2 3 4 6 3 3 2 4 3 3 2 3 3 2 5 4 5 4 4 5 3 1
11 11 9 7 9 12 16 19 23 25 25 6 3 4 2 4 2 5 4 5 5 4 6 5 2 3 4 4 6 4 3 1 3 3 4 6 3 3 4 1 2 2 3 2 3 3 2
10 11 11 9 8 10 14 18 22 26 30 2 2 3 3 3 1 2 2 2 3 4 5 2 2 3 5 4 3 4 3 3 3 2 4 4 4 3 6 3 3 2 4 4 2 3 2
10 11 12 10 8 9 12 16 20 26 29 1 3 3 4 4 5 1 4 3 4 5 3 2 5 2 2 6 7 8 7 3 4 3 3 3 3 3 2 1 6 3 5 5 5 6 8
10 11 12 11 9 8 10 13 17 21 16 3 3 3 3 4 3 1 3 3 5 4 1 3 7 6 5 0 4 6 4 5 7 6 3 3 5 3 2 2 2 3 1 3 2 4 1
9 10 11 12 9 8 8 10 13 15 13 2 2 4 3 3 2 2 3 3 10 5 3 2 3 5 2 5 7 8 10 8 8 5 3 5 4 2 2 3 2 5 2 1 6 3 4
10 10 11 12 11 8 8 8 12 14 15 1 2 3 3 3 5 5 6 4 7 3 2 2 3 1 8 5 6 5 5 5 4 6 4 3 4 3 3 2 4 4 4 5 3 1 1
9 9 10 11 12 9 8 7 11 14 16 3 2 2 3 3 2 6 4 4 3 4 3 3 4 3 5 4 4 3 4 3 3 2 4 6 6 4 1 1 3 5 3 2 3 1 1
10 10 10 11 12 10 9 7 9 13 16 9 3 3 3 3 3 6 3 3 4 3 2 3 2 2 3 2 3 2 2 5 4 6 4 2 3 4 1 1 4 4 0 2 2 4 4
10 10 10 10 12 11 9 7 8 11 14 10 4 4 2 3 6 4 2 4 4 2 2 1 3 3 3 4 3 2 2 3 3 3 4 4 4 2 2 3 3 1 4 1 3 5 5
10 10 10 10 11 11 9 7 7 10 13 11 2 7 9 4 5 5 15 17 13 14 1 2 3 3 4 4 1 3 2 2 3 2 3 2 4 4 3 4 4 3 4 4 5 5 2
Wind_Direction
40 40 33 30 23 20 8 2 3 3 359 353 349 343 341 336 334 332 329 326 324 319 317 316 319 334 7 340 251 21 100 121 123 101 129 124 63 73 341 308 332 200 83 37 76 82 79
42 41 35 33 24 18 8 6 4 2 352 351 348 344 339 336 333 330 328 326 322 318 316 307 310 333 28 281 259 360 140 133 111 123 139 155 186 187 230 314 92 32 87 78 36 73 111
39 39 34 30 24 13 10 6 4 357 353 348 344 343 337 334 330 329 326 322 323 320 322 299 277 94 192 241 341 313 166 193 175 161 218 224 244 82 65 347 126 152 79 59 37 169 152
36 33 32 26 21 15 7 4 1 356 352 348 347 342 335 331 330 327 325 320 322 319 335 132 137 109 252 253 298 277 170 253 215 228 238 270 188 259 158 124 38 47 58 109 221 172 193
35 32 27 23 17 15 10 3 360 356 353 350 346 343 339 332 330 327 324 317 316 333 89 128 74 73 272 319 284 275 157 196 111 130 244 284 68 68 21 94 18 1 207 200 302 190 143
30 28 22 18 17 11 9 3 359 355 351 350 346 342 341 333 330 327 323 312 288 320 229 204 295 358 287 322 306 325 221 154 87 352 8 59 52 55 35 68 229 236 239 253 236 190 154
27 23 20 16 12 8 5 3 358 353 350 346 343 342 338 335 332 327 333 349 12 353 17 244 277 272 272 303 282 278 139 97 74 50 346 352 68 252 242 215 200 315 218 253 254 203 151
23 19 16 13 9 6 2 1 359 354 348 346 342 339 339 331 327 322 334 71 90 267 305 256 246 248 264 89 293 298 130 120 129 212 114 13 266 251 240 225 209 229 246 263 281 206 175
17 13 9 7 6 2 1 358 356 354 349 344 343 343 339 329 320 359 327 94 318 339 267 296 220 209 209 152 216 256 143 129 167 193 198 168 244 286 242 220 256 251 201 246 225 106 71
10 8 6 3 1 359 356 355 353 351 347 344 340 341 340 334 16 332 305 320 313 183 5 277 270 265 148 163 249 213 197 141 154 215 204 233 276 287 322 253 160 272 203 227 179 126 227
359 1 0 359 357 355 353 352 350 348 346 342 336 337 337 332 296 317 305 325 309 85 8 253 206 125 160 148 210 46 191 73 194 182 113 257 293 330 290 246 146 227 46 46 90 124 59
335 351 354 355 353 351 350 348 347 344 340 336 332 329 332 335 293 251 317 310 8 46 263 298 163 168 139 175 99 71 90 39 75 139 265 238 279 270 294 46 23 108 65 44 48 73 66
310 339 347 351 349 348 348 346 343 341 338 333 327 318 310 285 237 10 337 6 56 137 299 226 203 161 166 186 213 128 78 20 31 36 345 328 304 323 23 9 21 62 55 322 334 7 227
282 318 337 345 346 346 346 345 343 339 336 334 325 310 265 219 238 265 2 48 112 229 240 295 153 92 174 170 207 95 80 89 21 52 68 66 334 10 341 58 300 272 153 168 243 224 253
269 304 325 338 341 342 344 343 343 340 338 337 329 335 277 251 199 114 86 131 204 208 279 311 67 139 224 199 136 92 69 93 43 14 149 133 292 331 45 15 38 354 20 278 106 14 30
285 289 312 329 336 340 342 343 344 343 341 340 328 318 264 166 149 116 101 247 247 218 324 337 207 161 183 208 120 90 115 315 334 44 192 183 341 14 340 44 32 86 356 24 6 356 289
314 290 304 318 328 336 340 343 345 346 344 343 18 330 272 159 142 79 202 238 279 256 214 199 231 150 163 144 94 81 67 5 355 344 62 65 124 306 43 19 311 352 27 54 111 110 158
324 301 295 310 322 333 339 343 345 349 349 3 320 313 342 124 104 175 189 211 292 282 263 269 174 105 122 100 85 93 120 62 350 92 73 0 118 64 129 222 25 71 102 97 109 281 252
336 317 293 302 317 330 338 341 344 348 358 321 308 278 304 211 175 227 266 272 262 308 308 318 205 119 84 109 95 98 105 52 50 78 141 179 32 91 330 344 355 42 32 89 92 108 209
335 330 313 297 313 326 337 341 344 345 345 332 283 306 281 220 202 156 212 263 265 246 259 250 239 101 94 65 29 132 114 84 63 88 89 91 61 131 172 188 199 2 329 108 121 111 186
326 334 325 306 306 322 336 342 346 347 340 305 226 255 333 305 270 206 45 289 276 251 218 233 28 71 135 110 87 105 115 115 61 96 61 89 81 93 74 88 83 189 38 43 182 230 126
322 325 330 315 297 315 334 344 352 355 345 293 317 324 338 287 284 251 171 258 246 272 237 252 143 59 97 148 173 183 138 158 173 43 71 28 137 99 112 135 56 67 48 69 74 87 114
319 322 327 323 295 304 328 345 358 4 10 348 340 323 275 287 322 111 222 254 279 6 6 329 151 107 58 39 114 113 111 118 145 127 116 97 147 109 217 353 359 6 33 48 49 50 148
310 316 322 323 299 286 317 344 356 4 15 315 284 286 280 290 314 298 310 314 274 263 261 4 65 95 114 142 96 54 50 69 80 50 113 122 105 87 165 14 10 242 306 151 110 32 22
302 309 318 323 314 275 306 337 345 353 355 247 266 282 303 294 317 291 318 264 285 329 103 102 354 319 146 62 77 60 6 32 51 32 59 110 114 91 129 188 266 340 152 148 171 50 318
299 302 312 319 316 275 293 325 337 346 351 326 261 256 280 315 212 321 314 320 336 348 35 34 38 63 65 78 81 122 177 165 192 81 85 71 76 107 118 112 182 242 293 133 108 251 123
294 298 305 312 313 283 281 310 332 342 350 345 277 308 272 276 295 2 324 333 332 349 99 12 33 49 48 71 87 130 169 176 156 167 167 43 35 123 109 120 295 261 357 60 71 248 15
290 290 296 303 307 293 271 297 325 340 351 357 277 306 339 310 278 263 287 327 331 288 110 233 60 358 46 69 114 176 123 201 93 183 171 150 132 184 86 71 332 333 64 335 181 25 96
286 287 291 298 302 294 265 287 315 336 349 2 308 315 308 227 275 290 267 251 233 234 291 301 182 169 174 93 87 118 111 84 140 196 28 54 168 158 152 199 246 357 87 53 98 115 71